[[{"header":{"parameterUnit":"m.s-1","parameterCategory":1,"la1":30.2991,"la2":30.254,"lo1":-89.0895,"lo2":-89.0444,"dy":0.0017,"dx":0.0017,"nx":28,"ny":28,"refTime":"2024-05-02T03:00:00:Z","depth":0,"parameterNumber":2,"parameterNumberName":"U-component_of_WINDS"},"data":[0,0,0,0,0,0,0,0,0,0,0,0,0,0,0,0,0,0,0,0,0,0,0,0,0,0,0,0,0,0,0,0,0,0,0,0,0,0,0,0,0,0,0,0,0,0,0,0,0,0,0,0,0,0,0,0,0,0,-1.176,-1.176,0,-1.1711,-1.171,-1.171,-1.1671,-1.1671,-1.1671,-1.167,-1.162,-1.1619,-1.1618,0,0,0,0,0,0,0,0,0,0,0,0,0,-1.1821,-1.182,-1.176,-1.176,-1.1759,-1.1711,-1.171,-1.171,-1.1671,-1.1671,-1.1671,-1.167,-1.162,-1.1619,-1.1618,0,0,0,0,0,0,0,0,0,0,0,0,0,-1.1786,-1.182,-1.176,-1.1734,-1.1731,-1.1711,-1.171,-1.171,-1.1672,-1.1671,-1.167,-1.167,-1.162,-1.1619,-1.1617,-1.1619,0,0,-1.1613,-1.1612,0,0,0,0,0,0,0,0,-1.1788,-1.1784,-1.1738,-1.1736,-1.1733,-1.1697,-1.1713,-1.1679,-1.1672,-1.1694,-1.167,-1.167,-1.1646,-1.1642,-1.1634,-1.1617,-1.1615,-1.1613,-1.1612,-1.1611,-1.1611,0,0,0,0,0,0,0,-1.179,-1.1785,-1.1741,-1.1738,-1.1734,-1.1725,-1.1719,-1.1707,-1.1674,-1.1692,-1.1689,-1.1684,-1.1644,-1.1636,-1.1633,-1.1614,-1.1613,-1.1611,-1.161,-1.161,-1.1597,-1.1598,0,0,0,0,0,0,-1.1797,-1.1788,-1.1742,-1.1739,-1.1759,-1.1724,-1.1718,-1.1709,-1.1674,-1.1668,-1.1685,-1.1682,-1.1638,-1.1634,-1.1631,-1.1631,-1.1611,-1.161,-1.1609,-1.1596,-1.1597,-1.1598,0,0,0,0,0,0,-1.1798,-1.1793,-1.1744,-1.1763,-1.1756,-1.1724,-1.1714,-1.1708,-1.17,-1.1668,-1.1662,-1.1682,-1.1638,-1.1633,-1.1623,-1.1629,-1.1609,-1.1608,-1.1596,-1.1597,-1.1597,-1.1632,0,0,0,0,0,0,-1.18,-1.1794,-1.1794,-1.1763,-1.1755,-1.1737,-1.1714,-1.1708,-1.1697,-1.1694,-1.1664,-1.1658,-1.1637,-1.1625,-1.1621,-1.1626,-1.1607,-1.1595,-1.1596,-1.1597,-1.163,-1.1634,-1.1637,0,0,0,0,0,-1.1803,-1.1806,-1.1794,-1.1789,-1.1755,-1.1737,-1.1733,-1.1708,-1.1698,-1.1698,-1.1678,-1.1659,-1.1629,-1.1624,-1.162,-1.1625,-1.1595,-1.1596,-1.1597,-1.1629,-1.1633,-1.1637,0,0,0,0,0,0,-1.1838,-1.1801,-1.1788,-1.1781,-1.1763,-1.1731,-1.173,-1.1714,-1.1698,-1.1695,-1.1665,-1.1659,-1.1652,-1.1637,-1.1633,-1.1625,-1.1609,-1.161,-1.1635,-1.1639,-1.1643,-1.1646,-1.1605,0,0,0,0,0,-1.1845,-1.1834,-1.1802,-1.1799,-1.1791,-1.1762,-1.1754,-1.1737,-1.1716,-1.1708,-1.1687,-1.1668,-1.1655,-1.1646,-1.1631,-1.1628,-1.1621,-1.1629,-1.1633,-1.1636,-1.1636,-1.1634,-1.1637,-1.1602,-1.1602,-1.1602,0,0,-1.186,-1.1838,-1.1833,-1.1806,-1.179,-1.1779,-1.1756,-1.1746,-1.1738,-1.1707,-1.1696,-1.168,-1.1657,-1.1651,-1.1647,-1.1638,-1.1645,-1.1637,-1.164,-1.1639,-1.1636,-1.1639,-1.1642,-1.1603,-1.1603,-1.1602,0,0,-1.1881,-1.1863,-1.1859,-1.1843,-1.1819,-1.18,-1.1799,-1.177,-1.1758,-1.1747,-1.1724,-1.1714,-1.1691,-1.1676,-1.1665,-1.1681,-1.1664,-1.1677,-1.1696,-1.1694,-1.1697,-1.1699,-1.1705,-1.1708,-1.1678,-1.1678,-1.1678,0,-1.1901,-1.1885,-1.1859,-1.185,-1.1839,-1.1811,-1.1807,-1.1793,-1.1765,-1.1759,-1.1749,-1.172,-1.1703,-1.1693,-1.1697,-1.1689,-1.1687,-1.1681,-1.1698,-1.1701,-1.1702,-1.1708,-1.1711,-1.168,-1.168,-1.168,-1.168,0,-1.1912,-1.1901,-1.1901,-1.1875,-1.1864,-1.1858,-1.1831,-1.1823,-1.1807,-1.179,-1.1779,-1.1757,-1.1738,-1.1735,-1.1719,-1.1723,-1.1718,-1.1704,-1.1688,-1.1708,-1.1713,-1.1715,-1.1683,-1.1682,-1.1681,-1.1681,0,0,-1.1954,-1.1914,-1.1915,-1.1903,-1.1875,-1.1866,-1.1859,-1.184,-1.1834,-1.1816,-1.181,-1.1791,-1.1779,-1.1767,-1.1749,-1.1747,-1.1762,-1.1733,-1.1732,-1.174,-1.1766,-1.1777,-1.178,-1.1751,-1.1751,-1.1751,-1.1768,0,-1.1971,-1.1956,-1.1933,-1.1926,-1.1916,-1.1889,-1.1883,-1.1865,-1.1849,-1.1838,-1.1819,-1.1807,-1.1791,-1.1783,-1.1781,-1.1761,-1.1767,-1.176,-1.1745,-1.1745,-1.1752,-1.1783,-1.1794,-1.1811,-1.177,-1.177,-1.1771,0,-1.1988,-1.1972,-1.1965,-1.1938,-1.1933,-1.1927,-1.1909,-1.1899,-1.1879,-1.1867,-1.1854,-1.1835,-1.1826,-1.1811,-1.1799,-1.1795,-1.1787,-1.1777,-1.1777,-1.1775,-1.1759,-1.1782,-1.1816,-1.1818,-1.1773,-1.1773,-1.1773,0,-1.202,-1.1997,-1.1989,-1.198,-1.1948,-1.1945,-1.1932,-1.1911,-1.1902,-1.1886,-1.188,-1.1863,-1.1854,-1.1842,-1.1819,-1.181,-1.181,-1.1793,-1.18,-1.18,-1.1801,-1.1801,-1.1835,-1.1796,-1.1796,-1.1796,-1.1796,0,-1.2042,-1.2038,-1.2003,-1.1999,-1.1994,-1.1968,-1.1964,-1.1948,-1.193,-1.1922,-1.1898,-1.1891,-1.1861,-1.1851,-1.1833,-1.1826,-1.1822,-1.1813,-1.1808,-1.1815,-1.1816,-1.181,-1.1808,-1.1796,-1.1796,-1.1796,-1.1796,0,-1.2076,-1.2053,-1.2043,-1.2014,-1.2007,-1.2005,-1.198,-1.1975,-1.1957,-1.1948,-1.1944,-1.1917,-1.1903,-1.1879,-1.1859,-1.1847,-1.1844,-1.1836,-1.1851,-1.1849,-1.1857,-1.1857,-1.1888,-1.1891,-1.185,-1.1851,-1.1851,0,-1.2092,-1.2089,-1.206,-1.2053,-1.204,-1.2029,-1.202,-1.1994,-1.1985,-1.1962,-1.196,-1.1945,-1.1932,-1.1912,-1.189,-1.1875,-1.1866,-1.1878,-1.1864,-1.1872,-1.1867,-1.1868,-1.1868,-1.1882,-1.1882,-1.1883,-1.1883,0,-1.2122,-1.2111,-1.2098,-1.2082,-1.2071,-1.2057,-1.2041,-1.2037,-1.2008,-1.1999,-1.1986,-1.1975,-1.1955,-1.1941,-1.1923,-1.1909,-1.1892,-1.1888,-1.1889,-1.1896,-1.1906,-1.1901,-1.1861,-1.1887,-1.1887,-1.1887,-1.1886,-1.1886,-1.2148,-1.2144,-1.2123,-1.211,-1.2096,-1.2082,-1.2076,-1.2058,-1.2046,-1.2028,-1.2013,-1.2001,-1.1981,-1.1955,-1.1943,-1.1933,-1.1925,-1.1926,-1.1926,-1.1927,-1.193,-1.1907,-1.193,-1.193,-1.1929,-1.1929,-1.1929,0,-1.2178,-1.2163,-1.2151,-1.213,-1.212,-1.2105,-1.2087,-1.208,-1.2069,-1.2052,-1.204,-1.2025,-1.2011,-1.1988,-1.1973,-1.197,-1.1961,-1.1966,-1.1967,-1.1964,-1.1938,-1.1939,-1.1974,-1.1974,-1.1974,-1.1974,-1.1974,-1.1974,-1.2192,-1.2185,-1.2171,-1.2157,-1.2142,-1.213,-1.2122,-1.2109,-1.2095,-1.208,-1.2068,-1.2054,-1.2035,-1.2018,-1.2005,-1.1998,-1.1994,-1.2002,-1.1993,-1.197,-1.1966,-1.1962,-1.1963,-1.2001,-1.2001,-1.202,-1.202,-1.202]},{"header":{"parameterUnit":"m.s-1","parameterCategory":1,"la1":30.2991,"la2":30.254,"lo1":-89.0895,"lo2":-89.0444,"dy":0.0017,"dx":0.0017,"nx":28,"ny":28,"refTime":"2024-05-02T03:00:00:Z","depth":0,"parameterNumber":3,"parameterNumberName":"V-component_of_WINDS"},"data":[0,0,0,0,0,0,0,0,0,0,0,0,0,0,0,0,0,0,0,0,0,0,0,0,0,0,0,0,0,0,0,0,0,0,0,0,0,0,0,0,0,0,0,0,0,0,0,0,0,0,0,0,0,0,0,0,0,0,3.4206,3.4205,0,3.4132,3.4131,3.413,3.4088,3.4088,3.4088,3.4088,3.4006,3.4004,3.4002,0,0,0,0,0,0,0,0,0,0,0,0,0,3.4308,3.4306,3.4206,3.4205,3.4204,3.4132,3.4131,3.413,3.4088,3.4088,3.4088,3.4088,3.4007,3.4004,3.4002,0,0,0,0,0,0,0,0,0,0,0,0,0,3.4251,3.4306,3.4206,3.4175,3.4172,3.4132,3.4131,3.413,3.4088,3.4088,3.4088,3.4088,3.4007,3.4004,3.4001,3.3986,0,0,3.3992,3.399,0,0,0,0,0,0,0,0,3.4255,3.4248,3.4181,3.4177,3.4173,3.4119,3.4137,3.4081,3.4088,3.412,3.4088,3.4088,3.4043,3.4037,3.4024,3.3982,3.3978,3.3992,3.399,3.3988,3.3987,0,0,0,0,0,0,0,3.4259,3.4251,3.4177,3.418,3.4175,3.4163,3.4155,3.4126,3.4083,3.4117,3.4114,3.4106,3.4041,3.4027,3.4021,3.3977,3.3992,3.3989,3.3987,3.3986,3.392,3.392,0,0,0,0,0,0,3.4268,3.4254,3.4179,3.4174,3.4215,3.4162,3.4152,3.4137,3.4084,3.4075,3.4106,3.4104,3.4032,3.4025,3.4018,3.3997,3.3988,3.3985,3.3984,3.392,3.392,3.392,0,0,0,0,0,0,3.4271,3.4262,3.4182,3.4213,3.4202,3.416,3.4143,3.4135,3.4121,3.4075,3.4067,3.4099,3.4032,3.4023,3.3995,3.3993,3.3984,3.3981,3.3919,3.392,3.392,3.3954,0,0,0,0,0,0,3.4274,3.4263,3.4257,3.4214,3.4201,3.4161,3.4143,3.4134,3.4116,3.4113,3.4067,3.4059,3.4031,3.4,3.3992,3.3989,3.3979,3.3919,3.392,3.392,3.3953,3.3955,3.3957,0,0,0,0,0,3.4277,3.4268,3.4257,3.4249,3.4193,3.4161,3.4153,3.4123,3.4116,3.411,3.4081,3.406,3.3995,3.3997,3.3988,3.3984,3.3919,3.3919,3.392,3.3952,3.3955,3.3957,0,0,0,0,0,0,3.431,3.4262,3.4249,3.4226,3.4198,3.4154,3.4145,3.4127,3.4099,3.4097,3.4059,3.4049,3.4024,3.4001,3.4004,3.3967,3.3955,3.3953,3.3983,3.3985,3.3988,3.3993,3.3976,0,0,0,0,0,3.4316,3.4295,3.4253,3.4237,3.4224,3.4187,3.4172,3.4151,3.412,3.4107,3.4076,3.4045,3.4018,3.4,3.3972,3.395,3.3939,3.3943,3.3945,3.3947,3.3946,3.3933,3.3934,3.3921,3.3921,3.3921,0,0,3.4325,3.4296,3.4285,3.4243,3.4219,3.4197,3.4177,3.4154,3.4138,3.4103,3.4075,3.4052,3.4015,3.399,3.3977,3.397,3.3948,3.3948,3.395,3.3947,3.3933,3.3935,3.3936,3.3921,3.3921,3.3921,0,0,3.4331,3.4307,3.4291,3.4269,3.4234,3.421,3.4206,3.4165,3.4149,3.4121,3.4095,3.4074,3.4027,3.4002,3.3983,3.3983,3.3963,3.3975,3.3987,3.3974,3.3975,3.3976,3.3976,3.3976,3.3974,3.3974,3.3974,0,3.4346,3.4314,3.4285,3.4265,3.4247,3.4218,3.4201,3.4179,3.4136,3.4124,3.4117,3.406,3.4033,3.4002,3.4002,3.3988,3.3982,3.3979,3.3978,3.3978,3.3979,3.3978,3.3978,3.3976,3.3975,3.3975,3.3975,0,3.4334,3.4313,3.4304,3.4266,3.4248,3.4229,3.4196,3.4181,3.4163,3.4139,3.4111,3.4078,3.4044,3.4035,3.4016,3.4002,3.3999,3.3986,3.3973,3.3982,3.3981,3.398,3.3978,3.3977,3.3977,3.3977,0,0,3.4357,3.4306,3.4303,3.4286,3.4246,3.4228,3.4208,3.4177,3.4165,3.4136,3.4118,3.4081,3.407,3.4048,3.4026,3.4016,3.4018,3.4004,3.4002,3.4007,3.4001,3.401,3.4011,3.4005,3.4005,3.4005,3.4004,0,3.4357,3.4322,3.4297,3.4271,3.4251,3.4224,3.4207,3.418,3.4158,3.4136,3.4111,3.4086,3.4072,3.406,3.4048,3.402,3.4016,3.402,3.3987,3.3986,3.3996,3.401,3.4019,3.402,3.4003,3.4003,3.4003,0,3.4351,3.4327,3.4301,3.4265,3.4255,3.4241,3.4211,3.4191,3.416,3.4145,3.4123,3.4101,3.4078,3.4069,3.4037,3.404,3.4025,3.401,3.4009,3.4004,3.3994,3.4004,3.4019,3.4019,3.4002,3.4002,3.4002,0,3.437,3.4331,3.431,3.4297,3.4254,3.4245,3.4226,3.4196,3.4179,3.4153,3.4141,3.4112,3.4095,3.4073,3.4043,3.4039,3.4014,3.4002,3.4,3.4,3.3994,3.3995,3.4006,3.3986,3.3986,3.3986,3.3986,0,3.4372,3.4357,3.4319,3.4306,3.4288,3.4259,3.4241,3.422,3.4194,3.4175,3.415,3.4133,3.4095,3.4073,3.405,3.4027,3.402,3.4006,3.4,3.4008,3.401,3.3997,3.3995,3.3986,3.3986,3.3986,3.3986,0,3.439,3.4364,3.434,3.4303,3.4293,3.4282,3.4249,3.4235,3.4213,3.4191,3.4184,3.4148,3.4121,3.409,3.4052,3.4037,3.4016,3.4007,3.4027,3.4023,3.4022,3.4023,3.4025,3.4024,3.4006,3.4006,3.4006,0,3.4393,3.4381,3.4344,3.4331,3.4314,3.4294,3.4278,3.4248,3.4232,3.4198,3.4188,3.416,3.4136,3.4095,3.4064,3.4036,3.4026,3.4029,3.4021,3.403,3.4025,3.4026,3.4025,3.403,3.403,3.4031,3.4031,0,3.44,3.4389,3.4368,3.4342,3.4325,3.4303,3.4279,3.427,3.4236,3.4219,3.4193,3.4175,3.4138,3.411,3.4079,3.4058,3.4038,3.4034,3.4032,3.404,3.4052,3.4045,3.4032,3.4034,3.4033,3.4033,3.4033,3.4033,3.441,3.4399,3.4372,3.4349,3.433,3.4309,3.4295,3.4272,3.4251,3.422,3.4204,3.4178,3.4148,3.4104,3.4084,3.4063,3.4056,3.4053,3.4052,3.4052,3.4054,3.4057,3.4057,3.4057,3.4057,3.4057,3.4057,0,3.4416,3.4398,3.4378,3.4348,3.4331,3.4317,3.4291,3.4277,3.4255,3.423,3.4208,3.4179,3.4152,3.4121,3.4093,3.4081,3.4072,3.4075,3.4075,3.407,3.4062,3.4066,3.4083,3.4083,3.4083,3.4083,3.4083,3.4083,3.4417,3.4398,3.4383,3.4354,3.4335,3.4312,3.4298,3.4279,3.4259,3.4228,3.4207,3.4188,3.416,3.413,3.4105,3.4096,3.4087,3.4092,3.4081,3.4073,3.4071,3.4069,3.4073,3.4091,3.4091,3.4091,3.4091,3.4091]}]]